Location: *
(43.0167°S, 179.9000°E)
Time: 10:27:15
(UTC+00:00)

CZ-4B R/B - Pass Details

Date: 12 August 2024
Orbit: 478 x 601 km, 97.9° (Epoch: 12 September)

Event Time Altitude Azimuth Distance (km) Brightness Sun altitude
Rises 18:07:33 0° 12° (NNE) 2,616 7.6 -9.5°
Reaches altitude 10° 18:09:39 10° 10° (N) 1,721 6.6 -9.2°
Maximum altitude 18:13:21 80° 284° (WNW) 515 3.6 -8.5°
Drops below altitude 10° 18:17:00 10° 195° (SSW) 1,703 6.1 -7.8°
Enters shadow 18:24:26 -16° 191° (S) 4,848 8.4 -6.5°
